Flag for Central African Republic Weather past 2 weeks in Bangui, Central African Republic

Now
72 °F

Thunderstorms. Mostly cloudy.


Feels Like: 65 °F
Forecast: 71 / 81 °F
Wind: 5 mph from North

Location: Bangui Airport

Current Time: Jul 3, 2015 at 2:22:22 PM

Latest Report: Jul 3, 2015 at 1:00 PM


Visibility: N/A

Pressure: 29.98 "Hg

Humidity: 100%

Dew point: 72 °F

Location of BanguiLocation

Historic Weather in Bangui — Graph

°F

Bangui temperature yesterday

Maximum temperature yesterday: 86 °F (at 1:00 PM)
Minimum temperature yesterday: 75 °F (at 2:00 AM)
Average temperature yesterday: 80 °F

Past Weeks' High & Low Weather Summary

 TemperatureHumidityPressure
High91 °F (Jun 18, 1:00 PM)100% (Jun 19, 1:00 AM)30.07 "Hg (Jun 19, 1:00 AM)
Low72 °F (Jun 21, 3:00 AM)55% (Jun 21, 4:00 PM)29.77 "Hg (Jun 18, 3:00 PM)
Average79 °F85%29.95 "Hg
* Reported Jun 18 1:00 PM — Jul 3 1:00 PM, Bangui, Weather by CustomWeather, © 2015

Note: Actual official high and low records may vary slightly from our data, if they occured in-between our weather recording intervals... More about our weather records

Advertising

Bangui weather history for previous 24 hours

 ConditionsComfort  
Time TempWeatherWind HumidityBarometerVisibility
1:00 PM
Fri, Jul 3
72 °FThunderstorms. Mostly cloudy.5 mph100%29.98 "HgN/A
12:00 PM73 °FThunderstorms. Mostly cloudy.3 mph94%30.01 "HgN/A
11:00 AM75 °FThunderstorms. Mostly cloudy.6 mph89%30.01 "HgN/A
10:00 AM75 °FThunderstorms. Mostly cloudy.3 mph89%30.01 "HgN/A
9:00 AM73 °FThunderstorms. Mostly cloudy.3 mph94%30.01 "Hg5 mi
8:00 AM73 °FThunderstorms. Mostly cloudy.3 mph100%30.01 "Hg4 mi
7:00 AM73 °FMostly cloudy.1 mph100%29.98 "Hg4 mi
6:00 AM72 °FMore clouds than sun.1 mph100%29.95 "Hg4 mi
5:00 AM73 °FThunderstorms. Passing clouds.5 mph94%29.92 "Hg5 mi
4:00 AM73 °FThunderstorms. Passing clouds.8 mph94%29.92 "Hg5 mi
3:00 AM73 °FThunderstorms. Passing clouds.9 mph100%29.92 "HgN/A
2:00 AM75 °FPassing clouds.7 mph94%29.92 "HgN/A
1:00 AM75 °FClear.6 mph100%29.92 "Hg10 mi
12:00 AM77 °FClear.No wind94%29.95 "Hg10 mi
11:00 PM
Thu, Jul 2
77 °FClear.No wind94%29.95 "Hg10 mi
10:00 PM77 °FClear.No wind94%29.95 "Hg10 mi
9:00 PM77 °FClear.2 mph94%29.95 "Hg10 mi
8:00 PM79 °FPassing clouds.2 mph94%N/A5 mi
7:00 PM81 °FPassing clouds.1 mph89%29.89 "Hg5 mi
6:00 PM82 °FThunderstorms. Broken clouds.3 mph84%29.86 "Hg5 mi
5:00 PM86 °FThunderstorms. Scattered clouds.1 mph70%29.83 "HgN/A
4:00 PM86 °FThunderstorms. Scattered clouds.3 mph70%29.83 "HgN/A
3:00 PM86 °FScattered clouds.3 mph70%29.83 "HgN/A
2:00 PM86 °FPartly sunny.5 mph75%29.86 "HgN/A
Weather by CustomWeather, © 2015

See weather overviewHow to use our weather pages